Regional Weather Roundup
Issued by NWS

Home | Current Version | Previous Version | Text Only | Print | Product List | Glossary Off
Versions: 1 2 3 4 5 6 7 8 9 10 11 12 13 14 15 16 17 18 19 20 21 22 23 24 25 26 27

000
ASUS45 KBOI 310610
RWRID

IDAHO REGIONAL WEATHER ROUNDUP
NATIONAL WEATHER SERVICE BOISE ID
1200 AM MDT TUE MAY 31 2016

NOTE: "FAIR" INDICATES FEW OR NO CLOUDS BELOW 12000 FEET
WITH NO SIGNIFICANT WEATHER AND/OR OBSTRUCTIONS TO VISIBILITY

IDZ012-014-310700-
SOUTHWEST IDAHO


CITY           SKY/WX    TMP DP  RH WIND       PRES   REMARKS
BOISE          PTCLDY    63  33  32 W7        30.07F
CALDWELL       PTCLDY    58  39  49 W12       30.08S
MOUNTAIN HOME  PTCLDY    64  34  32 NW15      30.06F
$$

IDZ016-017-310700-
SOUTHCENTRAL IDAHO


CITY           SKY/WX    TMP DP  RH WIND       PRES   REMARKS
BURLEY         CLEAR     56  28  34 SW13      30.08S
JEROME         CLEAR     54  27  35 SW9       30.08S
TWIN FALLS     CLEAR     51  27  39 S13       30.10S
$$

IDZ019>023-310700-
SOUTHEAST IDAHO


CITY           SKY/WX    TMP DP  RH WIND       PRES   REMARKS
IDAHO FALLS    CLEAR     49  35  58 CALM      30.11R
POCATELLO      CLEAR     59  27  29 SW14      30.10S
REXBURG        CLOUDY    51  35  54 N3        30.12R
$$

IDZ006-010-011-018-031-032-310700-
CENTRAL IDAHO MOUNTAINS


CITY           SKY/WX    TMP DP  RH WIND       PRES   REMARKS
MCCALL         PTCLDY    52  30  43 NW12      30.19S
HAILEY         CLEAR     48  36  61 NW10      30.12S
STANLEY          N/A     41  27  57 CALM      30.22R
SALMON         CLEAR     54  27  35 NE8       30.15S
CHALLIS        CLEAR     54  25  32 N9        30.16S
$$

IDZ002-004-006-007-026-310700-
NORTHERN IDAHO


CITY           SKY/WX    TMP DP  RH WIND       PRES   REMARKS
LEWISTON       CLEAR     58  36  43 S8        30.16S
LOWELL           N/A     50  43  77 CALM      30.21R
COEUR D`ALENE  CLEAR     54  41  62 SE5       30.15S
MULLAN PASS    CLEAR     42  26  53 NW3       30.26R
$$




USA.gov is the U.S. government's official web portal to all federal, state and local government web resources and services.